Location: Caltech
(34.1382°N, 118.1253°W)
Time: 19:41:07
(UTC-08:00)

SO-67 - Visible Passes

Search period start: 22 December 2014 00:00
Search period end: 01 January 2015 00:00
Orbit: 452 x 457 km, 97.1° (Epoch: 22 December)

Date Brightness Start Highest point End Pass type
(mag) Time Alt. Az. Time Alt. Az. Time Alt. Az.
22 Dec ? 05:59:34 10° ENE 06:01:19 13° E 06:03:03 10° SE visible
22 Dec ? 17:58:47 10° SSE 18:02:05 50° ENE 18:05:24 10° N visible
23 Dec ? 17:26:27 10° ESE 17:28:43 17° ENE 17:30:58 10° NNE visible
23 Dec ? 18:58:54 10° SW 19:01:24 19° W 19:03:55 10° NW visible
24 Dec ? 06:24:05 10° NE 06:27:09 30° E 06:30:11 10° SSE visible
24 Dec ? 18:24:22 10° S 18:27:44 61° W 18:31:06 10° NNW visible
25 Dec ? 05:52:47 10° E 05:53:22 10° E 05:53:58 10° ESE visible
25 Dec ? 17:51:00 10° SE 17:54:10 37° ENE 17:57:21 10° N visible
26 Dec ? 17:19:02 10° E 17:20:43 13° ENE 17:22:25 10° NE visible
26 Dec ? 18:50:28 10° SSW 18:53:18 25° W 18:56:10 10° NW visible
27 Dec ? 06:16:12 10° NE 06:19:00 23° E 06:21:47 10° SSE visible
27 Dec ? 18:16:10 10° S 18:19:34 83° WSW 18:22:59 10° NNW visible
28 Dec ? 17:42:58 10° SE 17:45:56 29° ENE 17:48:55 10° NNE visible
28 Dec ? 19:17:53 10° WSW 19:18:50 11° W 19:19:47 10° WNW visible
29 Dec ? 18:41:49 10° SSW 18:44:54 32° W 18:48:00 10° NNW visible
30 Dec ? 06:08:07 10° NE 06:10:32 18° E 06:12:57 10° SE visible
30 Dec ? 18:07:43 10° SSE 18:11:05 72° ENE 18:14:29 10° N visible
31 Dec ? 17:34:42 10° SE 17:37:23 22° ENE 17:40:05 10° NNE visible
31 Dec ? 19:08:15 10° SW 19:10:10 14° W 19:12:06 10° WNW visible
